Weather History for Bennington, VT

Change the Weather History Date:

Sunday, March 4, 2012

  Actual Average Record
Temperature  
Mean Temperature 33 °F 29 °F  
Max Temperature 40 °F 39 °F 55 °F (1999)
Min Temperature 25 °F 19 °F -8 °F (2014)
Degree Days  
Heating Degree Days 32 36  
Month to date heating degree days 121 145  
Since 1 July heating degree days 3786 5396  
Cooling Degree Days 0 0  
Month to date cooling degree days 0 0  
Year to date cooling degree days 0 0  
Moisture  
Dew Point 17 °F    
Average Humidity 51    
Maximum Humidity 61    
Minimum Humidity 40    
Precipitation  
Precipitation 0.00 in 0.09 in 0.63 in (2008)
Month to date precipitation 0.43 0.35  
Year to date precipitation 2.93 5.34  
Sea Level Pressure  
Sea Level Pressure 29.62 in    
Wind  
Wind Speed 7 mph (West)    
Max Wind Speed 17 mph    
Max Gust Speed 24 mph    
Visibility 10 miles    
Events      
T = Trace of Precipitation, MM = Missing Value Source: NWS Daily Summary

Daily Weather History Graph

Daily Weather History Graph

Search for Another Location

Airport:

Trip Planner

Search our weather history database for the weather conditions in past years. The results will help you decide how hot, cold, wet, or windy it might be!

Date:

Astronomy

Mar. 04, 2012 Rise Set
Actual Time 6:23 AM EST 5:46 PM EST
Civil Twilight 5:54 AM EST 6:15 PM EST
Nautical Twilight 5:22 AM EST 6:47 PM EST
Astronomical Twilight 4:49 AM EST 7:20 PM EST
Moon 1:51 PM EST (3/4) 3:46 AM EST (3/4)
Length of Visible Light 12h 20m
Length of Day
11h 23m
Waxing Gibbous, 83% of the Moon is Illuminated
Mar 4
Waxing Gibbous
Mar 8
Full
Mar 14
Last Quarter
Mar 22
New
Mar 30
First Quarter

Hourly Weather History & Observations

Time (EST) Temp. Windchill Dew Point Humidity Pressure Visibility Wind Dir Wind Speed Gust Speed Precip Events Conditions
12:54 AM 35.1 °F 32.2 °F 16.0 °F 46% 29.64 in 10.0 mi Variable 3.5 mph - N/A   Clear
1:54 AM 32.0 °F 28.7 °F 17.1 °F 54% 29.65 in 10.0 mi Variable 3.5 mph - N/A   Clear
2:54 AM 28.9 °F 23.9 °F 16.0 °F 58% 29.61 in 10.0 mi WSW 4.6 mph - N/A   Clear
3:54 AM 28.9 °F 23.9 °F 16.0 °F 58% 29.62 in 10.0 mi SW 4.6 mph - N/A   Clear
4:54 AM 30.9 °F 27.5 °F 16.0 °F 54% 29.64 in 10.0 mi SW 3.5 mph - N/A   Clear
5:54 AM 30.0 °F 23.2 °F 16.0 °F 56% 29.64 in 10.0 mi SW 6.9 mph - N/A   Clear
6:54 AM 30.9 °F 24.3 °F 16.0 °F 54% 29.64 in 10.0 mi SW 6.9 mph - N/A   Mostly Cloudy
7:54 AM 33.1 °F 27.7 °F 17.1 °F 52% 29.64 in 10.0 mi SW 5.8 mph - N/A   Mostly Cloudy
8:54 AM 35.1 °F 32.2 °F 18.0 °F 50% 29.63 in 10.0 mi Variable 3.5 mph - N/A   Clear
9:54 AM 37.0 °F 31.0 °F 18.0 °F 46% 29.60 in 10.0 mi WSW 8.1 mph 17.3 mph N/A   Scattered Clouds
10:54 AM 37.9 °F 31.5 °F 17.1 °F 43% 29.60 in 10.0 mi WSW 9.2 mph 18.4 mph N/A   Scattered Clouds
11:54 AM 37.0 °F 31.6 °F 16.0 °F 42% 29.59 in 10.0 mi NW 6.9 mph - N/A   Mostly Cloudy
12:54 PM 37.0 °F 31.0 °F 16.0 °F 42% 29.57 in 10.0 mi West 8.1 mph - N/A   Overcast
1:54 PM 37.0 °F 31.6 °F 17.1 °F 44% 29.56 in 10.0 mi WNW 6.9 mph - N/A   Overcast
2:54 PM 37.9 °F 30.5 °F 15.1 °F 39% 29.55 in 10.0 mi WNW 11.5 mph - N/A   Overcast
3:54 PM 37.0 °F 31.6 °F 18.0 °F 46% 29.56 in 10.0 mi WNW 6.9 mph 17.3 mph N/A   Overcast
4:54 PM 35.1 °F 28.6 °F 21.0 °F 57% 29.58 in 10.0 mi West 8.1 mph - N/A   Overcast
5:54 PM 34.0 °F 28.8 °F 21.9 °F 61% 29.60 in 10.0 mi West 5.8 mph - N/A   Overcast
6:54 PM 33.1 °F 28.7 °F 16.0 °F 50% 29.62 in 10.0 mi SW 4.6 mph - N/A   Mostly Cloudy
7:54 PM 30.9 °F 21.7 °F 16.0 °F 54% 29.63 in 10.0 mi WNW 11.5 mph 19.6 mph N/A   Overcast
8:54 PM 28.9 °F 18.6 °F 14.0 °F 54% 29.65 in 10.0 mi West 12.7 mph 19.6 mph N/A   Mostly Cloudy
9:54 PM 27.0 °F 15.6 °F 12.9 °F 56% 29.67 in 10.0 mi West 13.8 mph 21.9 mph N/A   Scattered Clouds
10:54 PM 26.1 °F 15.6 °F 12.9 °F 58% 29.68 in 10.0 mi WNW 11.5 mph 23.0 mph N/A   Overcast